Weather History for Qikiqtarjuaq, NU

Change the Weather History Date:

Thursday, May 23, 2013

  Actual Average Record
Temperature  
Mean Temperature 20 °F -  
Max Temperature 23 °F 27 °F 39 °F (2005)
Min Temperature 17 °F 21 °F 8 °F (1999)
Degree Days  
Heating Degree Days 45    
Moisture  
Dew Point 15 °F    
Average Humidity 82    
Maximum Humidity 86    
Minimum Humidity 74    
Precipitation  
Precipitation 0.00 in - - ()
Sea Level Pressure  
Sea Level Pressure 30.21 in    
Wind  
Wind Speed 6 mph ()    
Max Wind Speed 13 mph    
Max Gust Speed 17 mph    
Visibility 9.1 miles    
Events Snow    
Averages and records for this station are not official NWS values.
T = Trace of Precipitation, MM = Missing Value Source: Averaged Metar Reports

Daily Weather History Graph

Daily Weather History Graph

Search for Another Location

Airport:

Trip Planner

Search our weather history database for the weather conditions in past years. The results will help you decide how hot, cold, wet, or windy it might be!

Date:

Astronomy

May. 23, 2013 Rise Set
Actual Time 2:25 AM ADT 12:07 AM ADT
Civil Twilight Sun does not rise Sun does not rise
Nautical Twilight Sun does not rise Sun does not rise
Astronomical Twilight Sun does not rise Sun does not rise
Moon 9:17 PM ADT (5/23) 2:48 AM ADT (5/23)
Length of Visible Light 24h 00m
Length of Day
21h 41m
Waxing Gibbous, 96% of the Moon is Illuminated
May 23
Waxing Gibbous
May 25
Full
May 31
Last Quarter
Jun 8
New
Jun 16
First Quarter

Hourly Weather History & Observations

Time (ADT) Temp. Windchill Dew Point Humidity Pressure Visibility Wind Dir Wind Speed Gust Speed Precip Events Conditions
12:00 AM 19.4 °F 7.9 °F 15.8 °F 86% 30.25 in 9.0 mi North 10.4 mph 17.3 mph N/A   Overcast
1:00 AM 19.4 °F 6.6 °F 15.8 °F 86% 30.24 in 9.0 mi North 12.7 mph - N/A   Overcast
1:22 AM 19.4 °F 7.9 °F 15.8 °F 86% 30.24 in 9.0 mi North 10.4 mph - N/A Snow Light Snow
1:40 AM 19.4 °F 12.8 °F 15.8 °F 86% 30.24 in 9.0 mi North 4.6 mph - N/A   Overcast
1:50 AM 19.4 °F 12.8 °F 14.0 °F 80% 30.23 in 9.0 mi North 4.6 mph - N/A   Overcast
2:00 AM 19.4 °F 14.3 °F 14.0 °F 80% 30.23 in 9.0 mi NNW 3.5 mph - N/A   Overcast
3:00 AM 19.4 °F - 14.0 °F 80% 30.22 in 9.0 mi Calm Calm - N/A   Overcast
4:00 AM 17.6 °F - 14.0 °F 86% 30.23 in 9.0 mi ESE 2.3 mph - N/A   Overcast
4:57 AM 17.6 °F - 14.0 °F 86% 30.23 in 9.0 mi Calm Calm - N/A   Overcast
5:00 AM 17.6 °F - 14.0 °F 86% 30.23 in 9.0 mi Calm Calm - N/A   Overcast
6:00 AM 19.4 °F 14.3 °F 14.0 °F 80% 30.23 in 9.0 mi ENE 3.5 mph - N/A Snow Light Snow
7:00 AM 19.4 °F 12.8 °F 14.0 °F 80% 30.22 in 9.0 mi NE 4.6 mph - N/A Snow Light Snow
8:00 AM 19.4 °F 7.2 °F 15.8 °F 86% 30.22 in 9.0 mi North 11.5 mph - N/A Snow Light Snow
9:00 AM 19.4 °F 8.6 °F 15.8 °F 86% 30.23 in 9.0 mi NNE 9.2 mph - N/A Snow Light Snow
10:00 AM 21.2 °F 10.1 °F 15.8 °F 80% 30.22 in 7.0 mi North 10.4 mph - N/A Snow Light Snow Showers
11:00 AM 21.2 °F 9.5 °F 15.8 °F 80% 30.22 in 8.0 mi North 11.5 mph - N/A Snow Light Snow Showers
12:00 PM 21.2 °F 8.9 °F 15.8 °F 80% 30.22 in 7.0 mi North 12.7 mph - N/A Snow Light Snow Showers
12:40 PM 21.2 °F 8.9 °F 15.8 °F 80% 30.21 in 9.0 mi North 12.7 mph - N/A Snow Light Snow Showers
1:00 PM 21.2 °F 8.9 °F 15.8 °F 80% 30.21 in 9.0 mi North 12.7 mph - N/A Snow Light Snow Showers
2:00 PM 23.0 °F 11.7 °F 17.6 °F 80% 30.21 in 6.0 mi NNE 11.5 mph - N/A Snow Light Snow Showers
2:43 PM 23.0 °F 11.7 °F 15.8 °F 74% 30.20 in 9.0 mi NNE 11.5 mph - N/A Snow Light Snow
3:00 PM 23.0 °F 13.1 °F 15.8 °F 74% 30.20 in 9.0 mi NNE 9.2 mph - N/A Snow Light Snow
4:00 PM 23.0 °F 13.1 °F 15.8 °F 74% 30.20 in 9.0 mi NNE 9.2 mph - N/A Snow Light Snow
5:00 PM 23.0 °F 13.1 °F 15.8 °F 74% 30.20 in 10.0 mi NE 9.2 mph - N/A Snow Light Snow
6:00 PM 23.0 °F 14.7 °F 15.8 °F 74% 30.19 in 12.0 mi NE 6.9 mph - N/A Snow Light Snow
7:00 PM 21.2 °F 13.6 °F 15.8 °F 80% 30.19 in 15.0 mi NNE 5.8 mph - N/A Snow Light Snow
7:07 PM 21.2 °F 11.7 °F 15.8 °F 80% 30.19 in 9.0 mi NNE 8.1 mph - N/A   Overcast
8:00 PM 21.2 °F - 15.8 °F 80% 30.19 in 9.0 mi Calm Calm - N/A   Overcast
9:00 PM 19.4 °F - 15.8 °F 86% 30.19 in 9.0 mi North 2.3 mph - N/A   Overcast
10:00 PM 19.4 °F - 15.8 °F 86% 30.19 in 9.0 mi Variable 2.3 mph - N/A   Overcast
10:55 PM 17.6 °F - 14.0 °F 86% 30.19 in 9.0 mi Calm Calm - N/A   Overcast
11:00 PM 17.6 °F 10.7 °F 14.0 °F 86% 30.19 in 9.0 mi NW 4.6 mph - N/A   Overcast